Aviation Digital Data Service (ADDS)

Output produced by METARs form (1104 UTC 13 December 2017)
found at http://www.aviationweather.gov/adds/metars/
 
LECO 131100Z 20010KT 9999 FEW024 BKN032 OVC042 14/10 Q1022 NOSIG
TAF LECO 130800Z 1309/1409 21009KT 9999 SCT020 BKN035 TX15/1314Z TN09/1407Z 
     TEMPO 1310/1320 21015G25KT 
     TEMPO 1312/1409 RA BKN014 
     PROB40 
     TEMPO 1400/1409 30010KT 3000 RA BKN010
       
LEAB 131100Z 30005KT 270V330 CAVOK 05/M01 Q1028 NOSIG
TAF LEAB 130800Z 1309/1318 30010KT CAVOK
       
LERI 131000Z VRB02KT CAVOK 10/M01 Q1029 NOSIG
TAF LERI 130800Z 1309/1318 VRB02KT CAVOK
       
LEAL 131100Z 23007KT CAVOK 13/00 Q1027 NOSIG
TAF LEAL 130500Z 1306/1406 30008KT CAVOK TX17/1312Z TN04/1307Z 
     BECMG 1312/1314 24010KT 
     PROB40 
     TEMPO 1322/1406 28015G25KT
       
LEAM 131100Z VRB02KT CAVOK 15/02 Q1028
TAF AMD LEAM 130913Z 1309/1409 34010KT CAVOK TX14/1314Z TN07/1407Z 
     BECMG 1310/1312 21007KT 
     BECMG 1322/1324 30005KT
       
LEGA 131000Z 00000KT CAVOK 06/M02 Q1029
TAF LEGA 130800Z 1309/1318 02003KT CAVOK
       
LEAS 131100Z 24013KT 210V270 9999 BKN060 16/06 Q1019 NOSIG
TAF LEAS 130800Z 1309/1409 26009KT 9999 SCT040 TX16/1314Z TN10/1406Z 
     TEMPO 1309/1321 25015G25KT 
     TEMPO 1315/1409 3000 RA BKN014 
     PROB40 
     TEMPO 1321/1408 32010KT 1500 RA BCFG BKN008
       
LEMD 131100Z 13002KT CAVOK 04/00 Q1027 NOSIG
TAF LEMD 130500Z 1306/1412 VRB05KT CAVOK TX11/1314Z TNM03/1307Z 
     PROB40 
     TEMPO 1311/1320 23010KT 
     PROB40 
     TEMPO 1312/1318 23008G18KT 
     TEMPO 1406/1412 23010KT 
     BECMG 1403/1405 BKN005 
     TEMPO 1406/1410 3000 BR BKN003
       
LEBL 131100Z 28004KT 250V330 9999 FEW055 11/02 Q1024 NOSIG
TAF LEBL 130500Z 1306/1406 33010KT 9999 FEW030 TX14/1312Z TN03/1306Z 
     PROB40 
     TEMPO 1306/1310 33015G25KT 
     BECMG 1310/1312 24013KT 
     PROB30 
     TEMPO 1312/1315 25015G25KT
       
LEBB 131100Z 22012KT 170V270 9999 SCT036 12/05 Q1020 NOSIG
TAF LEBB 130500Z 1306/1406 20009KT 9999 SCT040 TX15/1314Z TN08/1306Z 
     TEMPO 1306/1321 20015G25KT 
     PROB40 
     TEMPO 1312/1406 RA 
     PROB40 
     TEMPO 1321/1406 3000 RA BKN014
       
LEBG 131030Z 18014KT 4000 -DZ BR OVC004 02/02 Q1024
TAF LEBG 130800Z 1309/1318 20012KT 9999 BKN012 
     TEMPO 1309/1311 BKN009 
     BECMG 1311/1313 20015KT OVC007 
     TEMPO 1314/1318 SCT011
       
LEBA 131030Z 08009KT CAVOK 07/02 Q1030
TAF LEBA 130800Z 1309/1318 07005KT CAVOK
       
LEVS 131100Z 18003KT 130V230 9999 FEW050 07/01 Q1027
TAF LEVS 130800Z 1309/1318 VRB05KT CAVOK 
     PROB40 
     TEMPO 1311/1318 23010KT 
     PROB30 
     TEMPO 1312/1318 23008G18KT
       
GCFV 131100Z 04026G36KT 9999 FEW040 19/11 Q1023
TAF GCFV 130800Z 1309/1409 02020KT 9999 FEW040 TX20/1314Z TN16/1406Z 
     TEMPO 1309/1316 02025G35KT
       
LEGT 131000Z 11002KT CAVOK 02/M01 Q1028
TAF LEGT 130800Z 1309/1318 VRB05KT CAVOK 
     PROB40 
     TEMPO 1311/1318 23010KT 
     PROB30 
     TEMPO 1312/1318 23008G18KT
       
LEGE 131100Z 00000KT 9999 FEW008 05/03 Q1022
TAF LEGE 130500Z 1306/1406 VRB04KT 9999 FEW020 TX13/1312Z TNM03/1307Z 
     PROB30 
     TEMPO 1306/1308 3000 BR
       
GCLP 131100Z 03027KT 9999 FEW030 BKN050 19/09 Q1023 NOSIG
TAF GCLP 130800Z 1309/1409 02025KT 9999 SCT040 TX20/1314Z TN16/1406Z 
     TEMPO 1309/1315 RA 
     TEMPO 1309/1318 02025G38KT 
     BECMG 1322/1324 03015KT
       
LEGR 131100Z 00000KT CAVOK 06/M01 Q1029
TAF LEGR 130800Z 1309/1409 VRB02KT CAVOK TX12/1315Z TNM00/1407Z
       
GCHI 131100Z 04018KT 010V070 9999 FEW022 SCT033 21/15 Q1024
TAF GCHI 130800Z 1309/1409 02020KT 9999 FEW030 SCT050 TX21/1314Z TN17/1406Z 
     TEMPO 1309/1409 02018G30KT
       
LEIB 131100Z 24011KT CAVOK 14/04 Q1027 NOSIG
TAF LEIB 130800Z 1309/1409 24012KT 9999 FEW025 TX16/1309Z TN08/1406Z 
     TEMPO 1309/1312 VRB03KT 
     PROB40 
     TEMPO 1314/1402 24015G25KT
       
LEAB 131100Z 30005KT 270V330 CAVOK 05/M01 Q1028 NOSIG
TAF LEAB 130800Z 1309/1318 30010KT CAVOK
       
LEAL 131100Z 23007KT CAVOK 13/00 Q1027 NOSIG
TAF LEAL 130500Z 1306/1406 30008KT CAVOK TX17/1312Z TN04/1307Z 
     BECMG 1312/1314 24010KT 
     PROB40 
     TEMPO 1322/1406 28015G25KT
       
LEAM 131100Z VRB02KT CAVOK 15/02 Q1028
TAF AMD LEAM 130913Z 1309/1409 34010KT CAVOK TX14/1314Z TN07/1407Z 
     BECMG 1310/1312 21007KT 
     BECMG 1322/1324 30005KT
       
LEAO 131000Z 00000KT CAVOK 03/00 Q1029
TAF LEAO 130800Z 1309/1315 VRB04KT CAVOK 
     BECMG 1310/1311 27010KT
       
LEAS 131100Z 24013KT 210V270 9999 BKN060 16/06 Q1019 NOSIG
TAF LEAS 130800Z 1309/1409 26009KT 9999 SCT040 TX16/1314Z TN10/1406Z 
     TEMPO 1309/1321 25015G25KT 
     TEMPO 1315/1409 3000 RA BKN014 
     PROB40 
     TEMPO 1321/1408 32010KT 1500 RA BCFG BKN008
       
LEBA 131030Z 08009KT CAVOK 07/02 Q1030
TAF LEBA 130800Z 1309/1318 07005KT CAVOK
       
LEBB 131100Z 22012KT 170V270 9999 SCT036 12/05 Q1020 NOSIG
TAF LEBB 130500Z 1306/1406 20009KT 9999 SCT040 TX15/1314Z TN08/1306Z 
     TEMPO 1306/1321 20015G25KT 
     PROB40 
     TEMPO 1312/1406 RA 
     PROB40 
     TEMPO 1321/1406 3000 RA BKN014
       
LEBG 131030Z 18014KT 4000 -DZ BR OVC004 02/02 Q1024
TAF LEBG 130800Z 1309/1318 20012KT 9999 BKN012 
     TEMPO 1309/1311 BKN009 
     BECMG 1311/1313 20015KT OVC007 
     TEMPO 1314/1318 SCT011
       
LEBL 131100Z 28004KT 250V330 9999 FEW055 11/02 Q1024 NOSIG
TAF LEBL 130500Z 1306/1406 33010KT 9999 FEW030 TX14/1312Z TN03/1306Z 
     PROB40 
     TEMPO 1306/1310 33015G25KT 
     BECMG 1310/1312 24013KT 
     PROB30 
     TEMPO 1312/1315 25015G25KT
       
LEBR 131030Z AUTO VRB02KT 9999 SCT063 02/M01 Q1025
LEBT 131000Z AUTO 26006KT 230V300 9999 // NCD 11/M01 Q1026
LEBZ 131100Z 12005KT 080V150 CAVOK 07/04 Q1030
TAF LEBZ 130500Z 1306/1406 VRB02KT CAVOK TX13/1315Z TN02/1308Z
       
LECH 131030Z AUTO 00000KT 9999 NCD 08/M04 Q1025
LECO 131100Z 20010KT 9999 FEW024 BKN032 OVC042 14/10 Q1022 NOSIG
TAF LECO 130800Z 1309/1409 21009KT 9999 SCT020 BKN035 TX15/1314Z TN09/1407Z 
     TEMPO 1310/1320 21015G25KT 
     TEMPO 1312/1409 RA BKN014 
     PROB40 
     TEMPO 1400/1409 30010KT 3000 RA BKN010
       
LECV 131000Z VRB02KT 9999 FEW040 04/M01 Q1026
TAF LECV 130800Z 1309/1318 VRB05KT CAVOK 
     PROB40 
     TEMPO 1311/1318 23010KT 
     PROB30 
     TEMPO 1312/1318 23008G18KT
       
LEEC 131000Z 02007KT CAVOK 08/02 Q1019
TAF LEEC 130800Z 1309/1318 03005KT CAVOK
       
LEGA 131000Z 00000KT CAVOK 06/M02 Q1029
TAF LEGA 130800Z 1309/1318 02003KT CAVOK
       
LEGE 131100Z 00000KT 9999 FEW008 05/03 Q1022
TAF LEGE 130500Z 1306/1406 VRB04KT 9999 FEW020 TX13/1312Z TNM03/1307Z 
     PROB30 
     TEMPO 1306/1308 3000 BR
       
LEGR 131100Z 00000KT CAVOK 06/M01 Q1029
TAF LEGR 130800Z 1309/1409 VRB02KT CAVOK TX12/1315Z TNM00/1407Z
       
LEGT 131000Z 11002KT CAVOK 02/M01 Q1028
TAF LEGT 130800Z 1309/1318 VRB05KT CAVOK 
     PROB40 
     TEMPO 1311/1318 23010KT 
     PROB30 
     TEMPO 1312/1318 23008G18KT
       
LEHC 131030Z 23003KT 200V270 CAVOK 03/00 Q1023
TAF LEHC 130800Z 1309/1409 VRB03KT 9999 SCT040 TX09/1314Z TN03/1407Z 
     TEMPO 1312/1317 27009KT
       
LEIB 131100Z 24011KT CAVOK 14/04 Q1027 NOSIG
TAF LEIB 130800Z 1309/1409 24012KT 9999 FEW025 TX16/1309Z TN08/1406Z 
     TEMPO 1309/1312 VRB03KT 
     PROB40 
     TEMPO 1314/1402 24015G25KT
       
LEJR 131100Z VRB02KT 9999 FEW025 09/03 Q1029
TAF LEJR 130500Z 1306/1406 02004KT CAVOK TX16/1315Z TN04/1308Z
       
LELC 131100Z 26007KT 210V280 CAVOK 14/00 Q1028 NOSIG
TAF AMD LELC 130920Z 1309/1406 25008KT CAVOK TX15/1314Z TN06/1406Z
       
LELL 131100Z 26011KT CAVOK 09/01 Q1023
TAF LELL 130800Z 1309/1409 27008KT 9999 SCT040 TX12/1309Z TN03/1406Z 
     PROB30 
     TEMPO 1309/1316 27008G18KT
       
LELN 131100Z 00000KT 0800 R23/0800N R05/P2000 FG VV002 02/02 Q1023
TAF AMD LELN 130906Z 1309/1318 22006KT 0800 FG OVC001 
     BECMG 1310/1312 3000 BR SCT003
       
LELO 131000Z VRB02KT 9000 FEW060 01/00 Q1024
TAF LELO 130800Z 1309/1318 VRB04KT 9999 FEW050 SCT060
       
LEMD 131100Z 13002KT CAVOK 04/00 Q1027 NOSIG
TAF LEMD 130500Z 1306/1412 VRB05KT CAVOK TX11/1314Z TNM03/1307Z 
     PROB40 
     TEMPO 1311/1320 23010KT 
     PROB40 
     TEMPO 1312/1318 23008G18KT 
     TEMPO 1406/1412 23010KT 
     BECMG 1403/1405 BKN005 
     TEMPO 1406/1410 3000 BR BKN003
       
LEMG 131100Z 30006KT 9999 FEW025 12/03 Q1029 BECMG 12006KT
TAF AMD LEMG 130914Z 1309/1406 31006KT 9999 SCT030 TX15/1314Z TN07/1309Z 
     BECMG 1312/1314 12006KT 
     BECMG 1319/1321 30008KT
       
LEMH 131100Z 26011KT 220V300 9999 SCT025 16/05 Q1025
TAF LEMH 130800Z 1309/1409 24012KT 9999 SCT040 TX15/1309Z TN09/1406Z 
     TEMPO 1309/1312 VRB04KT 
     TEMPO 1315/1409 24017G27KT
       
LEMO 131100Z 01007KT CAVOK 08/03 Q1029 NOSIG
TAF LEMO 130800Z 1309/1318 03005KT CAVOK
       
LEPA 131100Z 24007KT 9999 FEW026 14/07 Q1026 NOSIG
TAF LEPA 130500Z 1306/1406 VRB03KT 9999 FEW025 TX15/1312Z TN03/1306Z 
     BECMG 1310/1312 25012KT 
     PROB30 
     TEMPO 1314/1406 25015G25KT
       
LEPP 131100Z 00000KT 9999 BKN037 04/02 Q1023
TAF LEPP 130800Z 1309/1409 VRB04KT 9999 BKN040 TX10/1315Z TN06/1405Z 
     PROB40 
     TEMPO 1309/1321 16010KT 
     PROB40 
     TEMPO 1318/1409 RA 
     PROB40 
     TEMPO 1400/1407 BKN014
       
LERI 131000Z VRB02KT CAVOK 10/M01 Q1029 NOSIG
TAF LERI 130800Z 1309/1318 VRB02KT CAVOK
       
LERS 131100Z 25012KT CAVOK 11/01 Q1024
TAF LERS 130800Z 1309/1409 25009KT 9999 FEW040 TX14/1309Z TN06/1406Z 
     PROB30 
     TEMPO 1310/1315 26010G20KT 
     PROB30 
     TEMPO 1321/1406 31015G25KT
       
LERT 131000Z 05007KT CAVOK 08/03 Q1028 NOSIG
TAF LERT 130800Z 1309/1318 04007KT CAVOK
       
LESA 131100Z 22003KT 200V260 9999 BKN017 07/03 Q1027
TAF AMD LESA 130606Z 1306/1406 VRB04KT 9999 SCT012 TX10/1314Z TNM02/1307Z 
     TEMPO 1306/1310 3000 BR BKN003 
     PROB30 
     TEMPO 1306/1310 0200 FG FEW001 
     TEMPO 1311/1319 23012KT BKN015 
     BECMG 1322/1324 BKN004 
     TEMPO 1323/1406 BKN002
       
LESO 131100Z 23008KT 200V260 9999 BKN048 12/05 Q1020
TAF LESO 130500Z 1306/1406 20009KT 9999 SCT050 TX15/1314Z TN06/1306Z 
     PROB40 
     TEMPO 1306/1321 22015G25KT 
     PROB30 
     TEMPO 1306/1321 RA 
     TEMPO 1321/1406 3000 RA BKN014
       
LEST 131100Z 23008KT 160V280 8000 VCFG BKN004 11/10 Q1024 NOSIG
TAF LEST 130500Z 1306/1406 21009KT 6000 SCT005 BKN016 TX13/1314Z TN08/1307Z 
     TEMPO 1306/1406 3000 -RADZ BKN005 BKN010 
     TEMPO 1306/1406 0800 BCFG BKN002 
     PROB40 
     TEMPO 1306/1310 0350 FG VV001 
     TEMPO 1312/1321 23015G25KT
       
LETL 131030Z AUTO 14004KT 110V190 CAVOK 00/M03 Q1026
LETO 131100Z VRB02KT CAVOK 04/00 Q1028 NOSIG
TAF LETO 130500Z 1306/1406 VRB05KT CAVOK TX11/1314Z TNM03/1307Z 
     PROB40 
     TEMPO 1311/1320 23010KT 
     PROB40 
     TEMPO 1312/1318 23008G18KT 
     BECMG 1403/1405 OVC004
       
LEVC 131100Z 25013KT 220V280 CAVOK 12/M01 Q1026 NOSIG
TAF LEVC 130500Z 1306/1406 28005KT CAVOK TX17/1312Z TN00/1307Z 
     BECMG 1312/1314 27013KT 
     TEMPO 1312/1406 27015G25KT 
     PROB40 
     TEMPO 1321/1406 27020G38KT
       
LEVD 131100Z 21012KT 9999 SCT003 BKN005 OVC007 04/02 Q1025
TAF AMD LEVD 130606Z 1306/1406 23007KT 9999 SCT012 TX09/1315Z TNM01/1307Z 
     TEMPO 1306/1310 3000 BR BKN002 
     PROB40 
     TEMPO 1306/1310 0100 FG FEW001 
     TEMPO 1313/1317 BKN012 
     BECMG 1320/1322 BKN003 OVC006 
     BECMG 1400/1402 OVC002
       
LEVS 131100Z 18003KT 130V230 9999 FEW050 07/01 Q1027
TAF LEVS 130800Z 1309/1318 VRB05KT CAVOK 
     PROB40 
     TEMPO 1311/1318 23010KT 
     PROB30 
     TEMPO 1312/1318 23008G18KT
       
LEVT 131100Z 21012KT 9999 FEW021 07/04 Q1022
TAF LEVT 130500Z 1306/1406 23009KT 9999 FEW050 TX11/1314Z TN02/1306Z 
     PROB40 
     TEMPO 1310/1324 23015G25KT 
     PROB40 
     TEMPO 1318/1406 RA 
     PROB40 
     TEMPO 1400/1406 BKN014
       
LEVX 131100Z 18005KT 120V230 7000 BKN003 OVC007 10/10 Q1026 TEMPO 1500 BCFG
TAF LEVX 130500Z 1306/1406 19009KT 6000 SCT005 BKN016 TX13/1314Z TN08/1306Z 
     TEMPO 1306/1406 3000 RADZ BR BKN010 
     TEMPO 1306/1406 0800 BCFG BKN005 
     PROB40 
     TEMPO 1306/1310 0350 FG VV001 
     PROB40 
     TEMPO 1318/1406 0350 FG VV001
       
LEXJ 131100Z 22009KT 9999 FEW030 14/06 Q1019
TAF LEXJ 130800Z 1309/1409 22009KT 9999 BKN035 TX15/1314Z TN11/1406Z 
     PROB40 
     TEMPO 1309/1321 22015G25KT 
     TEMPO 1318/1409 3000 RA 
     PROB40 
     TEMPO 1321/1409 32010KT 3000 RA BKN010
       
LEZG 131100Z 08004KT 050V110 CAVOK 04/01 Q1024
TAF LEZG 130500Z 1306/1406 24010KT 9999 SCT060 TX14/1313Z TNM00/1307Z 
     PROB40 
     TEMPO 1306/1310 VRB04KT 
     PROB40 
     TEMPO 1310/1406 25015G25KT
       
LEZL 131100Z 04010KT CAVOK 11/04 Q1030 NOSIG
TAF LEZL 130800Z 1309/1409 05005KT CAVOK TX15/1315Z TN03/1407Z
       
LEJR 131100Z VRB02KT 9999 FEW025 09/03 Q1029
TAF LEJR 130500Z 1306/1406 02004KT CAVOK TX16/1315Z TN04/1308Z
       
GCGM 131100Z 02016G32KT 290V080 9999 FEW038 20/08 Q1023 RMK R09/06012G24KT 350V140 ARP/06017G30KT 010V110
GCLA 131100Z 36022KT 9999 FEW035 SCT060 19/13 Q1026
TAF GCLA 130800Z 1309/1409 02015KT 9999 SCT030 TX20/1314Z TN17/1406Z 
     TEMPO 1309/1321 02020G30KT 
     PROB40 
     TEMPO 1309/1320 4000 RA
       
GCRR 131100Z 03024G35KT 9999 FEW040 19/08 Q1023
TAF GCRR 130800Z 1309/1409 02020KT 9999 FEW040 TX21/1315Z TN15/1406Z 
     TEMPO 1309/1316 02025G35KT 
     BECMG 1402/1404 02010KT
       
LELN 131100Z 00000KT 0800 R23/0800N R05/P2000 FG VV002 02/02 Q1023
TAF AMD LELN 130906Z 1309/1318 22006KT 0800 FG OVC001 
     BECMG 1310/1312 3000 BR SCT003
       
LEMG 131100Z 30006KT 9999 FEW025 12/03 Q1029 BECMG 12006KT
TAF AMD LEMG 130914Z 1309/1406 31006KT 9999 SCT030 TX15/1314Z TN07/1309Z 
     BECMG 1312/1314 12006KT 
     BECMG 1319/1321 30008KT
       
GEML 131030Z VRB01KT CAVOK 15/06 Q1029
TAF GEML 130800Z 1309/1409 09006KT CAVOK TX16/1313Z TN06/1405Z
       
LEMH 131100Z 26011KT 220V300 9999 SCT025 16/05 Q1025
TAF LEMH 130800Z 1309/1409 24012KT 9999 SCT040 TX15/1309Z TN09/1406Z 
     TEMPO 1309/1312 VRB04KT 
     TEMPO 1315/1409 24017G27KT
       
LEAB 131100Z 30005KT 270V330 CAVOK 05/M01 Q1028 NOSIG
TAF LEAB 130800Z 1309/1318 30010KT CAVOK
       
LEAL 131100Z 23007KT CAVOK 13/00 Q1027 NOSIG
TAF LEAL 130500Z 1306/1406 30008KT CAVOK TX17/1312Z TN04/1307Z 
     BECMG 1312/1314 24010KT 
     PROB40 
     TEMPO 1322/1406 28015G25KT
       
LEAM 131100Z VRB02KT CAVOK 15/02 Q1028
TAF AMD LEAM 130913Z 1309/1409 34010KT CAVOK TX14/1314Z TN07/1407Z 
     BECMG 1310/1312 21007KT 
     BECMG 1322/1324 30005KT
       
LEAO 131000Z 00000KT CAVOK 03/00 Q1029
TAF LEAO 130800Z 1309/1315 VRB04KT CAVOK 
     BECMG 1310/1311 27010KT
       
LEAS 131100Z 24013KT 210V270 9999 BKN060 16/06 Q1019 NOSIG
TAF LEAS 130800Z 1309/1409 26009KT 9999 SCT040 TX16/1314Z TN10/1406Z 
     TEMPO 1309/1321 25015G25KT 
     TEMPO 1315/1409 3000 RA BKN014 
     PROB40 
     TEMPO 1321/1408 32010KT 1500 RA BCFG BKN008
       
LEBA 131030Z 08009KT CAVOK 07/02 Q1030
TAF LEBA 130800Z 1309/1318 07005KT CAVOK
       
LEBB 131100Z 22012KT 170V270 9999 SCT036 12/05 Q1020 NOSIG
TAF LEBB 130500Z 1306/1406 20009KT 9999 SCT040 TX15/1314Z TN08/1306Z 
     TEMPO 1306/1321 20015G25KT 
     PROB40 
     TEMPO 1312/1406 RA 
     PROB40 
     TEMPO 1321/1406 3000 RA BKN014
       
LEBG 131030Z 18014KT 4000 -DZ BR OVC004 02/02 Q1024
TAF LEBG 130800Z 1309/1318 20012KT 9999 BKN012 
     TEMPO 1309/1311 BKN009 
     BECMG 1311/1313 20015KT OVC007 
     TEMPO 1314/1318 SCT011
       
LEBL 131100Z 28004KT 250V330 9999 FEW055 11/02 Q1024 NOSIG
TAF LEBL 130500Z 1306/1406 33010KT 9999 FEW030 TX14/1312Z TN03/1306Z 
     PROB40 
     TEMPO 1306/1310 33015G25KT 
     BECMG 1310/1312 24013KT 
     PROB30 
     TEMPO 1312/1315 25015G25KT
       
LEBR 131030Z AUTO VRB02KT 9999 SCT063 02/M01 Q1025
LEBT 131000Z AUTO 26006KT 230V300 9999 // NCD 11/M01 Q1026
LEBZ 131100Z 12005KT 080V150 CAVOK 07/04 Q1030
TAF LEBZ 130500Z 1306/1406 VRB02KT CAVOK TX13/1315Z TN02/1308Z
       
LECH 131030Z AUTO 00000KT 9999 NCD 08/M04 Q1025
LECO 131100Z 20010KT 9999 FEW024 BKN032 OVC042 14/10 Q1022 NOSIG
TAF LECO 130800Z 1309/1409 21009KT 9999 SCT020 BKN035 TX15/1314Z TN09/1407Z 
     TEMPO 1310/1320 21015G25KT 
     TEMPO 1312/1409 RA BKN014 
     PROB40 
     TEMPO 1400/1409 30010KT 3000 RA BKN010
       
LECV 131000Z VRB02KT 9999 FEW040 04/M01 Q1026
TAF LECV 130800Z 1309/1318 VRB05KT CAVOK 
     PROB40 
     TEMPO 1311/1318 23010KT 
     PROB30 
     TEMPO 1312/1318 23008G18KT
       
LEEC 131000Z 02007KT CAVOK 08/02 Q1019
TAF LEEC 130800Z 1309/1318 03005KT CAVOK
       
LEGA 131000Z 00000KT CAVOK 06/M02 Q1029
TAF LEGA 130800Z 1309/1318 02003KT CAVOK
       
LEGE 131100Z 00000KT 9999 FEW008 05/03 Q1022
TAF LEGE 130500Z 1306/1406 VRB04KT 9999 FEW020 TX13/1312Z TNM03/1307Z 
     PROB30 
     TEMPO 1306/1308 3000 BR
       
LEGR 131100Z 00000KT CAVOK 06/M01 Q1029
TAF LEGR 130800Z 1309/1409 VRB02KT CAVOK TX12/1315Z TNM00/1407Z
       
LEGT 131000Z 11002KT CAVOK 02/M01 Q1028
TAF LEGT 130800Z 1309/1318 VRB05KT CAVOK 
     PROB40 
     TEMPO 1311/1318 23010KT 
     PROB30 
     TEMPO 1312/1318 23008G18KT
       
LEHC 131030Z 23003KT 200V270 CAVOK 03/00 Q1023
TAF LEHC 130800Z 1309/1409 VRB03KT 9999 SCT040 TX09/1314Z TN03/1407Z 
     TEMPO 1312/1317 27009KT
       
LEIB 131100Z 24011KT CAVOK 14/04 Q1027 NOSIG
TAF LEIB 130800Z 1309/1409 24012KT 9999 FEW025 TX16/1309Z TN08/1406Z 
     TEMPO 1309/1312 VRB03KT 
     PROB40 
     TEMPO 1314/1402 24015G25KT
       
LEJR 131100Z VRB02KT 9999 FEW025 09/03 Q1029
TAF LEJR 130500Z 1306/1406 02004KT CAVOK TX16/1315Z TN04/1308Z
       
LELC 131100Z 26007KT 210V280 CAVOK 14/00 Q1028 NOSIG
TAF AMD LELC 130920Z 1309/1406 25008KT CAVOK TX15/1314Z TN06/1406Z
       
LELL 131100Z 26011KT CAVOK 09/01 Q1023
TAF LELL 130800Z 1309/1409 27008KT 9999 SCT040 TX12/1309Z TN03/1406Z 
     PROB30 
     TEMPO 1309/1316 27008G18KT
       
LELN 131100Z 00000KT 0800 R23/0800N R05/P2000 FG VV002 02/02 Q1023
TAF AMD LELN 130906Z 1309/1318 22006KT 0800 FG OVC001 
     BECMG 1310/1312 3000 BR SCT003
       
LELO 131000Z VRB02KT 9000 FEW060 01/00 Q1024
TAF LELO 130800Z 1309/1318 VRB04KT 9999 FEW050 SCT060
       
LEMD 131100Z 13002KT CAVOK 04/00 Q1027 NOSIG
TAF LEMD 130500Z 1306/1412 VRB05KT CAVOK TX11/1314Z TNM03/1307Z 
     PROB40 
     TEMPO 1311/1320 23010KT 
     PROB40 
     TEMPO 1312/1318 23008G18KT 
     TEMPO 1406/1412 23010KT 
     BECMG 1403/1405 BKN005 
     TEMPO 1406/1410 3000 BR BKN003
       
LEMG 131100Z 30006KT 9999 FEW025 12/03 Q1029 BECMG 12006KT
TAF AMD LEMG 130914Z 1309/1406 31006KT 9999 SCT030 TX15/1314Z TN07/1309Z 
     BECMG 1312/1314 12006KT 
     BECMG 1319/1321 30008KT
       
LEMH 131100Z 26011KT 220V300 9999 SCT025 16/05 Q1025
TAF LEMH 130800Z 1309/1409 24012KT 9999 SCT040 TX15/1309Z TN09/1406Z 
     TEMPO 1309/1312 VRB04KT 
     TEMPO 1315/1409 24017G27KT
       
LEMO 131100Z 01007KT CAVOK 08/03 Q1029 NOSIG
TAF LEMO 130800Z 1309/1318 03005KT CAVOK
       
LEPA 131100Z 24007KT 9999 FEW026 14/07 Q1026 NOSIG
TAF LEPA 130500Z 1306/1406 VRB03KT 9999 FEW025 TX15/1312Z TN03/1306Z 
     BECMG 1310/1312 25012KT 
     PROB30 
     TEMPO 1314/1406 25015G25KT
       
LEPP 131100Z 00000KT 9999 BKN037 04/02 Q1023
TAF LEPP 130800Z 1309/1409 VRB04KT 9999 BKN040 TX10/1315Z TN06/1405Z 
     PROB40 
     TEMPO 1309/1321 16010KT 
     PROB40 
     TEMPO 1318/1409 RA 
     PROB40 
     TEMPO 1400/1407 BKN014
       
LERI 131000Z VRB02KT CAVOK 10/M01 Q1029 NOSIG
TAF LERI 130800Z 1309/1318 VRB02KT CAVOK
       
LERS 131100Z 25012KT CAVOK 11/01 Q1024
TAF LERS 130800Z 1309/1409 25009KT 9999 FEW040 TX14/1309Z TN06/1406Z 
     PROB30 
     TEMPO 1310/1315 26010G20KT 
     PROB30 
     TEMPO 1321/1406 31015G25KT
       
LERT 131000Z 05007KT CAVOK 08/03 Q1028 NOSIG
TAF LERT 130800Z 1309/1318 04007KT CAVOK
       
LESA 131100Z 22003KT 200V260 9999 BKN017 07/03 Q1027
TAF AMD LESA 130606Z 1306/1406 VRB04KT 9999 SCT012 TX10/1314Z TNM02/1307Z 
     TEMPO 1306/1310 3000 BR BKN003 
     PROB30 
     TEMPO 1306/1310 0200 FG FEW001 
     TEMPO 1311/1319 23012KT BKN015 
     BECMG 1322/1324 BKN004 
     TEMPO 1323/1406 BKN002
       
LESO 131100Z 23008KT 200V260 9999 BKN048 12/05 Q1020
TAF LESO 130500Z 1306/1406 20009KT 9999 SCT050 TX15/1314Z TN06/1306Z 
     PROB40 
     TEMPO 1306/1321 22015G25KT 
     PROB30 
     TEMPO 1306/1321 RA 
     TEMPO 1321/1406 3000 RA BKN014
       
LEST 131100Z 23008KT 160V280 8000 VCFG BKN004 11/10 Q1024 NOSIG
TAF LEST 130500Z 1306/1406 21009KT 6000 SCT005 BKN016 TX13/1314Z TN08/1307Z 
     TEMPO 1306/1406 3000 -RADZ BKN005 BKN010 
     TEMPO 1306/1406 0800 BCFG BKN002 
     PROB40 
     TEMPO 1306/1310 0350 FG VV001 
     TEMPO 1312/1321 23015G25KT
       
LETL 131030Z AUTO 14004KT 110V190 CAVOK 00/M03 Q1026
LETO 131100Z VRB02KT CAVOK 04/00 Q1028 NOSIG
TAF LETO 130500Z 1306/1406 VRB05KT CAVOK TX11/1314Z TNM03/1307Z 
     PROB40 
     TEMPO 1311/1320 23010KT 
     PROB40 
     TEMPO 1312/1318 23008G18KT 
     BECMG 1403/1405 OVC004
       
LEVC 131100Z 25013KT 220V280 CAVOK 12/M01 Q1026 NOSIG
TAF LEVC 130500Z 1306/1406 28005KT CAVOK TX17/1312Z TN00/1307Z 
     BECMG 1312/1314 27013KT 
     TEMPO 1312/1406 27015G25KT 
     PROB40 
     TEMPO 1321/1406 27020G38KT
       
LEVD 131100Z 21012KT 9999 SCT003 BKN005 OVC007 04/02 Q1025
TAF AMD LEVD 130606Z 1306/1406 23007KT 9999 SCT012 TX09/1315Z TNM01/1307Z 
     TEMPO 1306/1310 3000 BR BKN002 
     PROB40 
     TEMPO 1306/1310 0100 FG FEW001 
     TEMPO 1313/1317 BKN012 
     BECMG 1320/1322 BKN003 OVC006 
     BECMG 1400/1402 OVC002
       
LEVS 131100Z 18003KT 130V230 9999 FEW050 07/01 Q1027
TAF LEVS 130800Z 1309/1318 VRB05KT CAVOK 
     PROB40 
     TEMPO 1311/1318 23010KT 
     PROB30 
     TEMPO 1312/1318 23008G18KT
       
LEVT 131100Z 21012KT 9999 FEW021 07/04 Q1022
TAF LEVT 130500Z 1306/1406 23009KT 9999 FEW050 TX11/1314Z TN02/1306Z 
     PROB40 
     TEMPO 1310/1324 23015G25KT 
     PROB40 
     TEMPO 1318/1406 RA 
     PROB40 
     TEMPO 1400/1406 BKN014
       
LEVX 131100Z 18005KT 120V230 7000 BKN003 OVC007 10/10 Q1026 TEMPO 1500 BCFG
TAF LEVX 130500Z 1306/1406 19009KT 6000 SCT005 BKN016 TX13/1314Z TN08/1306Z 
     TEMPO 1306/1406 3000 RADZ BR BKN010 
     TEMPO 1306/1406 0800 BCFG BKN005 
     PROB40 
     TEMPO 1306/1310 0350 FG VV001 
     PROB40 
     TEMPO 1318/1406 0350 FG VV001
       
LEXJ 131100Z 22009KT 9999 FEW030 14/06 Q1019
TAF LEXJ 130800Z 1309/1409 22009KT 9999 BKN035 TX15/1314Z TN11/1406Z 
     PROB40 
     TEMPO 1309/1321 22015G25KT 
     TEMPO 1318/1409 3000 RA 
     PROB40 
     TEMPO 1321/1409 32010KT 3000 RA BKN010
       
LEZG 131100Z 08004KT 050V110 CAVOK 04/01 Q1024
TAF LEZG 130500Z 1306/1406 24010KT 9999 SCT060 TX14/1313Z TNM00/1307Z 
     PROB40 
     TEMPO 1306/1310 VRB04KT 
     PROB40 
     TEMPO 1310/1406 25015G25KT
       
LEZL 131100Z 04010KT CAVOK 11/04 Q1030 NOSIG
TAF LEZL 130800Z 1309/1409 05005KT CAVOK TX15/1315Z TN03/1407Z
       
LEMO 131100Z 01007KT CAVOK 08/03 Q1029 NOSIG
TAF LEMO 130800Z 1309/1318 03005KT CAVOK
       
LEPP 131100Z 00000KT 9999 BKN037 04/02 Q1023
TAF LEPP 130800Z 1309/1409 VRB04KT 9999 BKN040 TX10/1315Z TN06/1405Z 
     PROB40 
     TEMPO 1309/1321 16010KT 
     PROB40 
     TEMPO 1318/1409 RA 
     PROB40 
     TEMPO 1400/1407 BKN014
       
LERS 131100Z 25012KT CAVOK 11/01 Q1024
TAF LERS 130800Z 1309/1409 25009KT 9999 FEW040 TX14/1309Z TN06/1406Z 
     PROB30 
     TEMPO 1310/1315 26010G20KT 
     PROB30 
     TEMPO 1321/1406 31015G25KT
       
LERT 131000Z 05007KT CAVOK 08/03 Q1028 NOSIG
TAF LERT 130800Z 1309/1318 04007KT CAVOK
       
LESA 131100Z 22003KT 200V260 9999 BKN017 07/03 Q1027
TAF AMD LESA 130606Z 1306/1406 VRB04KT 9999 SCT012 TX10/1314Z TNM02/1307Z 
     TEMPO 1306/1310 3000 BR BKN003 
     PROB30 
     TEMPO 1306/1310 0200 FG FEW001 
     TEMPO 1311/1319 23012KT BKN015 
     BECMG 1322/1324 BKN004 
     TEMPO 1323/1406 BKN002
       
LESO 131100Z 23008KT 200V260 9999 BKN048 12/05 Q1020
TAF LESO 130500Z 1306/1406 20009KT 9999 SCT050 TX15/1314Z TN06/1306Z 
     PROB40 
     TEMPO 1306/1321 22015G25KT 
     PROB30 
     TEMPO 1306/1321 RA 
     TEMPO 1321/1406 3000 RA BKN014
       
LEXJ 131100Z 22009KT 9999 FEW030 14/06 Q1019
TAF LEXJ 130800Z 1309/1409 22009KT 9999 BKN035 TX15/1314Z TN11/1406Z 
     PROB40 
     TEMPO 1309/1321 22015G25KT 
     TEMPO 1318/1409 3000 RA 
     PROB40 
     TEMPO 1321/1409 32010KT 3000 RA BKN010
       
LEST 131100Z 23008KT 160V280 8000 VCFG BKN004 11/10 Q1024 NOSIG
TAF LEST 130500Z 1306/1406 21009KT 6000 SCT005 BKN016 TX13/1314Z TN08/1307Z 
     TEMPO 1306/1406 3000 -RADZ BKN005 BKN010 
     TEMPO 1306/1406 0800 BCFG BKN002 
     PROB40 
     TEMPO 1306/1310 0350 FG VV001 
     TEMPO 1312/1321 23015G25KT
       
LEZL 131100Z 04010KT CAVOK 11/04 Q1030 NOSIG
TAF LEZL 130800Z 1309/1409 05005KT CAVOK TX15/1315Z TN03/1407Z
       
LEBZ 131100Z 12005KT 080V150 CAVOK 07/04 Q1030
TAF LEBZ 130500Z 1306/1406 VRB02KT CAVOK TX13/1315Z TN02/1308Z
       
GCXO 131100Z 02009KT 340V070 9999 FEW023 BKN036 14/09 Q1026 NOSIG
TAF GCXO 130800Z 1309/1409 34015KT 9999 BKN020 TX16/1314Z TN11/1406Z 
     BECMG 1310/1312 04015KT 
     PROB40 
     TEMPO 1309/1318 4000 DZRA BCFG FEW002 BKN007
       
GCTS 131100Z 08030KT 9999 FEW040 21/10 Q1023 NOSIG
TAF GCTS 130800Z 1309/1409 04020KT 9999 FEW040 TX23/1314Z TN15/1406Z 
     TEMPO 1310/1321 04025G38KT 
     PROB40 
     TEMPO 1310/1320 04030G42KT
       
LETO 131100Z VRB02KT CAVOK 04/00 Q1028 NOSIG
TAF LETO 130500Z 1306/1406 VRB05KT CAVOK TX11/1314Z TNM03/1307Z 
     PROB40 
     TEMPO 1311/1320 23010KT 
     PROB40 
     TEMPO 1312/1318 23008G18KT 
     BECMG 1403/1405 OVC004
       
LEVC 131100Z 25013KT 220V280 CAVOK 12/M01 Q1026 NOSIG
TAF LEVC 130500Z 1306/1406 28005KT CAVOK TX17/1312Z TN00/1307Z 
     BECMG 1312/1314 27013KT 
     TEMPO 1312/1406 27015G25KT 
     PROB40 
     TEMPO 1321/1406 27020G38KT
       
LEVD 131100Z 21012KT 9999 SCT003 BKN005 OVC007 04/02 Q1025
TAF AMD LEVD 130606Z 1306/1406 23007KT 9999 SCT012 TX09/1315Z TNM01/1307Z 
     TEMPO 1306/1310 3000 BR BKN002 
     PROB40 
     TEMPO 1306/1310 0100 FG FEW001 
     TEMPO 1313/1317 BKN012 
     BECMG 1320/1322 BKN003 OVC006 
     BECMG 1400/1402 OVC002
       
LEVX 131100Z 18005KT 120V230 7000 BKN003 OVC007 10/10 Q1026 TEMPO 1500 BCFG
TAF LEVX 130500Z 1306/1406 19009KT 6000 SCT005 BKN016 TX13/1314Z TN08/1306Z 
     TEMPO 1306/1406 3000 RADZ BR BKN010 
     TEMPO 1306/1406 0800 BCFG BKN005 
     PROB40 
     TEMPO 1306/1310 0350 FG VV001 
     PROB40 
     TEMPO 1318/1406 0350 FG VV001
       
LEVT 131100Z 21012KT 9999 FEW021 07/04 Q1022
TAF LEVT 130500Z 1306/1406 23009KT 9999 FEW050 TX11/1314Z TN02/1306Z 
     PROB40 
     TEMPO 1310/1324 23015G25KT 
     PROB40 
     TEMPO 1318/1406 RA 
     PROB40 
     TEMPO 1400/1406 BKN014
       
LEZG 131100Z 08004KT 050V110 CAVOK 04/01 Q1024
TAF LEZG 130500Z 1306/1406 24010KT 9999 SCT060 TX14/1313Z TNM00/1307Z 
     PROB40 
     TEMPO 1306/1310 VRB04KT 
     PROB40 
     TEMPO 1310/1406 25015G25KT